TimeCDT,TemperatureF,Dew PointF,Humidity,Sea Level PressureIn,VisibilityMPH,Wind Direction,Wind SpeedMPH,Gust SpeedMPH,PrecipitationIn,Events,Conditions,WindDirDegrees,DateUTC
12:54 AM,54.0,39.0,57,30.08,10.0,ESE,4.6,-,N/A,,Clear,120,2013-03-30 05:54:00
1:54 AM,54.0,39.9,59,30.08,10.0,East,4.6,-,N/A,,Mostly Cloudy,90,2013-03-30 06:54:00
2:54 AM,53.1,39.9,61,30.06,10.0,East,6.9,-,N/A,,Mostly Cloudy,90,2013-03-30 07:54:00
3:54 AM,52.0,39.0,61,30.04,10.0,ENE,5.8,-,N/A,,Mostly Cloudy,70,2013-03-30 08:54:00
4:54 AM,51.1,39.9,66,30.01,10.0,East,3.5,-,N/A,,Mostly Cloudy,90,2013-03-30 09:54:00
5:54 AM,48.9,39.0,69,29.99,10.0,NNE,3.5,-,N/A,,Clear,30,2013-03-30 10:54:00
6:10 AM,50.0,39.2,66,29.99,10.0,East,3.5,-,N/A,,Mostly Cloudy,100,2013-03-30 11:10:00
6:54 AM,54.0,45.0,72,29.96,10.0,Calm,Calm,-,N/A,,Mostly Cloudy,0,2013-03-30 11:54:00
7:54 AM,54.0,46.0,75,29.96,10.0,SSE,5.8,-,N/A,,Overcast,150,2013-03-30 12:54:00
8:54 AM,55.0,48.0,77,29.94,10.0,SE,8.1,-,N/A,,Overcast,140,2013-03-30 13:54:00
9:40 AM,55.4,48.2,77,29.95,10.0,South,8.1,-,N/A,,Overcast,170,2013-03-30 14:40:00
9:54 AM,55.0,48.9,80,29.95,10.0,SSW,3.5,-,N/A,,Overcast,200,2013-03-30 14:54:00
10:54 AM,55.9,48.9,77,29.96,10.0,Calm,Calm,-,N/A,,Overcast,0,2013-03-30 15:54:00
11:54 AM,55.9,48.9,77,29.96,10.0,East,8.1,-,N/A,,Overcast,90,2013-03-30 16:54:00
12:54 PM,57.9,51.1,78,29.94,9.0,East,6.9,-,0.00,,Overcast,90,2013-03-30 17:54:00
1:34 PM,57.2,50.0,77,29.93,9.0,East,6.9,-,N/A,,Overcast,90,2013-03-30 18:34:00
1:51 PM,57.2,50.0,77,29.93,9.0,East,5.8,-,N/A,,Overcast,90,2013-03-30 18:51:00
1:54 PM,59.0,51.1,75,29.92,9.0,ESE,5.8,-,N/A,,Overcast,110,2013-03-30 18:54:00
2:54 PM,63.0,53.1,70,29.88,10.0,South,3.5,-,N/A,,Overcast,180,2013-03-30 19:54:00
3:54 PM,64.0,52.0,65,29.87,10.0,Calm,Calm,-,N/A,,Overcast,0,2013-03-30 20:54:00
4:54 PM,66.9,51.1,57,29.86,10.0,North,5.8,-,N/A,,Partly Cloudy,10,2013-03-30 21:54:00
5:54 PM,64.9,52.0,63,29.86,10.0,East,10.4,-,N/A,,Scattered Clouds,100,2013-03-30 22:54:00
6:54 PM,63.0,51.1,65,29.86,10.0,ENE,5.8,-,N/A,,Clear,70,2013-03-30 23:54:00
7:54 PM,59.0,51.1,75,29.87,10.0,East,5.8,-,N/A,,Clear,90,2013-03-31 00:54:00
8:54 PM,57.0,51.1,81,29.89,10.0,SE,3.5,-,N/A,,Clear,130,2013-03-31 01:54:00
9:54 PM,55.0,50.0,83,29.90,9.0,East,4.6,-,N/A,,Clear,90,2013-03-31 02:54:00
10:54 PM,52.0,48.9,89,29.91,6.0,Calm,Calm,-,N/A,,Clear,0,2013-03-31 03:54:00
11:54 PM,48.9,48.0,97,29.92,4.0,Calm,Calm,-,N/A,,Clear,0,2013-03-31 04:54:00